Tracking 19431 objects as of 18-Dec-2018
HD Live streaming from Space Station
objects crossing your sky now

ARABSAT 2B

Track ARABSAT 2B now!
ARABSAT 2B is classified as:


NORAD ID: 24652
Int'l Code: 1996-063A
Perigee: 36,017.2 km
Apogee: 36,057.4 km
Inclination: 4.8 °
Period: 1,448.6 minutes
Semi major axis: 42408 km
RCS: 3.8888 m2 (large)
Launch date: November 13, 1996
Source: Arab Satellite Communications Organization (AB)
Launch site: FRENCH GUIANA (FRGUI)

Second generation; radio and tv communications to Middle East.
aabbcc
Your satellite tracking list
Your tracking list is empty




NASA's NSSDC Master Catalog

Two Line Element Set (TLE):
1 24652U 96063A   18351.28971306 -.00000071 +00000-0 +00000-0 0  9996
2 24652 004.7970 067.9375 0004733 222.5395 173.2175 00.99409273081233
Source of the keplerian elements: AFSPC